QPF
0.01 0.01 0.03 0.01 0.01 0.03 0.08 0.07 0.05 0.04 0.04 0.04 0.04 0.04 0.05 0.05 0.06 0.05 0.03 0.02 0.01 0.01 0.01 0.01 0.02 0.03 0.03 0.03 0.05 0.04 0.04 0.03 0.04 0.04 0.03 0.02 0.01 0.01 0.01 0.01 0.01 0.01 0.01
0.01 0.01 0.01 0.00 0.00 0.01 0.04 0.05 0.04 0.03 0.02 0.03 0.03 0.03 0.03 0.06 0.07 0.04 0.03 0.03 0.02 0.02 0.01 0.02 0.03 0.04 0.05 0.05 0.04 0.04 0.04 0.03 0.03 0.04 0.04 0.03 0.03 0.02 0.01 0.00 0.00 0.01 0.01
0.00 0.01 0.00 0.00 0.00 0.01 0.02 0.03 0.03 0.02 0.02 0.03 0.04 0.04 0.05 0.09 0.12 0.07 0.04 0.04 0.04 0.03 0.03 0.03 0.03 0.04 0.04 0.05 0.05 0.04 0.04 0.04 0.04 0.04 0.04 0.05 0.04 0.02 0.01 0.00 0.00 0.00 0.01
0.00 0.01 0.00 0.01 0.01 0.01 0.01 0.02 0.03 0.02 0.02 0.03 0.04 0.04 0.04 0.05 0.08 0.07 0.04 0.05 0.04 0.04 0.04 0.03 0.03 0.04 0.04 0.05 0.05 0.04 0.04 0.04 0.05 0.05 0.04 0.04 0.05 0.04 0.03 0.02 0.01 0.01 0.01
0.01 0.01 0.02 0.02 0.02 0.02 0.02 0.02 0.03 0.03 0.03 0.03 0.03 0.03 0.03 0.02 0.02 0.03 0.03 0.05 0.05 0.05 0.04 0.04 0.04 0.05 0.05 0.05 0.06 0.05 0.04 0.04 0.04 0.06 0.06 0.05 0.04 0.03 0.03 0.03 0.03 0.02 0.01
0.01 0.01 0.03 0.03 0.03 0.01 0.02 0.03 0.02 0.03 0.02 0.03 0.02 0.02 0.02 0.02 0.02 0.02 0.03 0.04 0.04 0.04 0.03 0.03 0.04 0.04 0.04 0.04 0.05 0.05 0.04 0.03 0.04 0.05 0.05 0.05 0.05 0.05 0.05 0.04 0.03 0.03 0.03
0.01 0.02 0.04 0.04 0.02 0.01 0.02 0.02 0.02 0.02 0.02 0.02 0.03 0.02 0.02 0.02 0.02 0.02 0.02 0.03 0.03 0.02 0.03 0.04 0.04 0.04 0.03 0.03 0.04 0.04 0.04 0.05 0.05 0.04 0.04 0.04 0.04 0.05 0.05 0.05 0.04 0.04 0.03
0.02 0.03 0.03 0.03 0.02 0.01 0.01 0.01 0.01 0.01 0.02 0.02 0.03 0.03 0.02 0.02 0.02 0.02 0.02 0.02 0.02 0.02 0.02 0.03 0.04 0.04 0.03 0.03 0.03 0.03 0.04 0.05 0.05 0.04 0.04 0.05 0.05 0.06 0.06 0.05 0.06 0.06 0.04
0.04 0.05 0.04 0.02 0.02 0.01 0.01 0.02 0.01 0.01 0.01 0.02 0.02 0.03 0.04 0.03 0.02 0.02 0.02 0.01 0.01 0.01 0.02 0.03 0.04 0.04 0.03 0.03 0.04 0.04 0.04 0.05 0.05 0.04 0.04 0.04 0.04 0.05 0.05 0.05 0.09 0.10 0.08
0.03 0.02 0.02 0.02 0.02 0.01 0.02 0.02 0.01 0.01 0.01 0.01 0.01 0.01 0.02 0.02 0.02 0.01 0.01 0.01 0.01 0.01 0.01 0.01 0.02 0.03 0.04 0.03 0.03 0.04 0.04 0.05 0.04 0.04 0.05 0.04 0.04 0.04 0.04 0.05 0.06 0.07 0.09
0.03 0.03 0.02 0.02 0.01 0.01 0.01 0.01 0.01 0.01 0.01 0.01 0.01 0.02 0.01 0.01 0.01 0.01 0.01 0.01 0.01 0.01 0.01 0.02 0.02 0.04 0.05 0.05 0.04 0.02 0.02 0.02 0.03 0.04 0.04 0.05 0.05 0.05 0.04 0.05 0.05 0.05 0.06
0.04 0.03 0.02 0.01 0.01 0.01 0.01 0.01 0.00 0.00 0.01 0.02 0.03 0.03 0.02 0.01 0.01 0.01 0.01 0.01 0.01 0.01 0.01 0.02 0.02 0.04 0.05 0.07 0.06 0.05 0.03 0.04 0.04 0.03 0.03 0.03 0.04 0.06 0.06 0.05 0.05 0.06 0.06
0.04 0.02 0.02 0.01 0.01 0.01 0.01 0.01 0.01 0.01 0.01 0.02 0.05 0.03 0.01 0.01 0.02 0.02 0.01 0.01 0.01 0.01 0.01 0.01 0.02 0.03 0.05 0.08 0.08 0.07 0.06 0.06 0.04 0.03 0.03 0.04 0.04 0.05 0.06 0.06 0.06 0.05 0.05
0.02 0.02 0.02 0.01 0.02 0.02 0.02 0.02 0.01 0.01 0.01 0.02 0.03 0.02 0.01 0.01 0.02 0.02 0.01 0.02 0.02 0.02 0.02 0.02 0.02 0.04 0.04 0.05 0.06 0.06 0.06 0.06 0.05 0.05 0.03 0.03 0.03 0.04 0.05 0.05 0.06 0.06 0.06
0.02 0.02 0.02 0.02 0.02 0.02 0.02 0.03 0.02 0.01 0.01 0.01 0.02 0.01 0.01 0.01 0.01 0.01 0.01 0.02 0.02 0.01 0.02 0.02 0.02 0.03 0.03 0.03 0.03 0.04 0.04 0.06 0.06 0.06 0.05 0.04 0.04 0.05 0.05 0.04 0.05 0.05 0.06
0.01 0.02 0.01 0.01 0.02 0.02 0.03 0.04 0.04 0.03 0.02 0.02 0.01 0.01 0.01 0.01 0.01 0.01 0.01 0.02 0.02 0.01 0.01 0.01 0.02 0.02 0.02 0.02 0.02 0.03 0.03 0.04 0.05 0.06 0.07 0.05 0.05 0.05 0.04 0.03 0.03 0.04 0.05
0.01 0.01 0.01 0.01 0.01 0.01 0.02 0.04 0.05 0.05 0.04 0.03 0.02 0.02 0.01 0.01 0.01 0.01 0.01 0.02 0.02 0.02 0.01 0.02 0.03 0.03 0.02 0.02 0.02 0.02 0.03 0.03 0.04 0.04 0.04 0.04 0.04 0.04 0.03 0.03 0.02 0.02 0.02
0.02 0.01 0.01 0.01 0.01 0.02 0.02 0.03 0.04 0.04 0.04 0.04 0.03 0.02 0.01 0.01 0.00 0.01 0.02 0.02 0.03 0.03 0.02 0.02 0.03 0.03 0.02 0.02 0.01 0.01 0.02 0.02 0.03 0.03 0.04 0.05 0.05 0.04 0.04 0.03 0.03 0.02 0.01
0.02 0.01 0.01 0.01 0.01 0.01 0.02 0.01 0.01 0.02 0.03 0.03 0.02 0.02 0.01 0.01 0.01 0.01 0.02 0.02 0.02 0.03 0.03 0.03 0.04 0.03 0.03 0.02 0.01 0.02 0.03 0.03 0.03 0.03 0.04 0.04 0.05 0.05 0.04 0.04 0.04 0.03 0.02
0.01 0.01 0.01 0.02 0.01 0.01 0.02 0.01 0.01 0.01 0.02 0.02 0.01 0.01 0.01 0.01 0.01 0.01 0.02 0.03 0.03 0.03 0.03 0.03 0.03 0.03 0.03 0.02 0.01 0.01 0.03 0.03 0.02 0.04 0.05 0.04 0.04 0.03 0.03 0.03 0.04 0.04 0.03
0.01 0.01 0.01 0.01 0.02 0.02 0.02 0.02 0.02 0.02 0.01 0.01 0.01 0.01 0.01 0.01 0.01 0.01 0.01 0.02 0.03 0.03 0.03 0.03 0.03 0.02 0.02 0.01 0.01 0.02 0.03 0.03 0.03 0.04 0.04 0.04 0.03 0.02 0.01 0.02 0.02 0.03 0.03
0.01 0.01 0.01 0.01 0.02 0.02 0.02 0.02 0.02 0.02 0.01 0.01 0.02 0.02 0.02 0.02 0.01 0.01 0.01 0.02 0.02 0.02 0.02 0.02 0.02 0.02 0.02 0.02 0.01 0.01 0.03 0.04 0.03 0.05 0.05 0.05 0.05 0.03 0.02 0.01 0.01 0.01 0.02
0.01 0.01 0.02 0.02 0.01 0.02 0.03 0.03 0.02 0.03 0.03 0.03 0.02 0.02 0.02 0.02 0.02 0.02 0.03 0.02 0.02 0.01 0.01 0.01 0.01 0.02 0.02 0.02 0.02 0.02 0.03 0.04 0.04 0.04 0.06 0.06 0.05 0.04 0.03 0.02 0.01 0.01 0.01
0.02 0.03 0.03 0.03 0.03 0.04 0.04 0.04 0.04 0.04 0.04 0.04 0.04 0.03 0.02 0.02 0.02 0.02 0.03 0.04 0.03 0.02 0.02 0.01 0.01 0.02 0.02 0.02 0.02 0.02 0.03 0.04 0.04 0.04 0.05 0.05 0.03 0.03 0.02 0.02 0.02 0.02 0.02
0.02 0.04 0.03 0.04 0.04 0.05 0.07 0.06 0.06 0.06 0.05 0.05 0.04 0.04 0.03 0.03 0.02 0.02 0.02 0.03 0.04 0.04 0.03 0.02 0.02 0.02 0.02 0.03 0.03 0.03 0.03 0.03 0.02 0.03 0.04 0.05 0.04 0.03 0.02 0.02 0.02 0.02 0.02
0.04 0.04 0.04 0.04 0.03 0.03 0.04 0.04 0.05 0.06 0.06 0.04 0.04 0.04 0.04 0.04 0.03 0.03 0.02 0.02 0.03 0.04 0.05 0.04 0.04 0.04 0.03 0.02 0.01 0.01 0.02 0.03 0.02 0.02 0.04 0.05 0.05 0.04 0.02 0.01 0.02 0.02 0.02
MSLP
1007.39 1008.20 1008.94 1009.59 1010.16 1010.67 1011.13 1011.58 1011.99 1012.36 1012.69 1012.95 1013.13 1013.24 1013.29 1013.31 1013.32 1013.33 1013.38 1013.45 1013.53 1013.61 1013.68 1013.71 1013.72 1013.71 1013.71 1013.72 1013.78 1013.90 1014.05 1014.24 1014.43 1014.59 1014.70 1014.73 1014.69 1014.57 1014.40 1014.21 1014.02 1013.85 1013.73
1007.11 1007.99 1008.80 1009.51 1010.12 1010.66 1011.14 1011.60 1012.03 1012.44 1012.80 1013.10 1013.33 1013.49 1013.57 1013.60 1013.61 1013.62 1013.65 1013.71 1013.79 1013.89 1013.98 1014.06 1014.11 1014.14 1014.16 1014.18 1014.23 1014.32 1014.44 1014.60 1014.76 1014.91 1015.02 1015.07 1015.05 1014.95 1014.80 1014.62 1014.43 1014.26 1014.13
1006.74 1007.70 1008.57 1009.33 1009.99 1010.56 1011.06 1011.54 1012.00 1012.44 1012.85 1013.21 1013.49 1013.70 1013.82 1013.87 1013.88 1013.89 1013.91 1013.96 1014.05 1014.16 1014.29 1014.40 1014.50 1014.56 1014.61 1014.64 1014.67 1014.72 1014.81 1014.92 1015.05 1015.18 1015.28 1015.35 1015.36 1015.30 1015.19 1015.04 1014.87 1014.71 1014.57
1006.31 1007.31 1008.24 1009.05 1009.75 1010.35 1010.89 1011.39 1011.88 1012.37 1012.83 1013.25 1013.59 1013.86 1014.03 1014.12 1014.15 1014.16 1014.17 1014.22 1014.31 1014.44 1014.59 1014.74 1014.88 1014.98 1015.05 1015.09 1015.11 1015.13 1015.17 1015.24 1015.32 1015.43 1015.53 1015.60 1015.63 1015.61 1015.54 1015.43 1015.29 1015.14 1015.01
1005.81 1006.84 1007.81 1008.67 1009.41 1010.05 1010.63 1011.16 1011.69 1012.22 1012.73 1013.21 1013.63 1013.96 1014.19 1014.33 1014.39 1014.42 1014.44 1014.49 1014.58 1014.72 1014.89 1015.08 1015.25 1015.38 1015.47 1015.52 1015.53 1015.53 1015.54 1015.56 1015.61 1015.69 1015.77 1015.85 1015.90 1015.91 1015.87 1015.79 1015.67 1015.54 1015.41
1005.26 1006.30 1007.30 1008.21 1008.99 1009.67 1010.28 1010.85 1011.42 1011.99 1012.56 1013.11 1013.60 1014.00 1014.30 1014.49 1014.60 1014.65 1014.68 1014.74 1014.83 1014.98 1015.17 1015.38 1015.58 1015.74 1015.86 1015.92 1015.94 1015.93 1015.91 1015.91 1015.93 1015.98 1016.05 1016.12 1016.18 1016.20 1016.18 1016.12 1016.01 1015.89 1015.76
1004.65 1005.71 1006.74 1007.68 1008.51 1009.23 1009.88 1010.48 1011.09 1011.71 1012.33 1012.94 1013.49 1013.96 1014.32 1014.57 1014.73 1014.81 1014.87 1014.93 1015.04 1015.19 1015.39 1015.62 1015.85 1016.04 1016.19 1016.28 1016.32 1016.32 1016.29 1016.28 1016.28 1016.31 1016.36 1016.43 1016.48 1016.51 1016.50 1016.43 1016.33 1016.20 1016.06
1004.02 1005.09 1006.14 1007.12 1007.99 1008.76 1009.44 1010.09 1010.73 1011.38 1012.04 1012.69 1013.30 1013.83 1014.25 1014.56 1014.76 1014.88 1014.96 1015.05 1015.16 1015.32 1015.53 1015.78 1016.03 1016.26 1016.44 1016.57 1016.64 1016.66 1016.66 1016.65 1016.65 1016.67 1016.72 1016.77 1016.82 1016.84 1016.82 1016.75 1016.64 1016.50 1016.35
1003.39 1004.47 1005.55 1006.56 1007.47 1008.28 1009.00 1009.68 1010.35 1011.03 1011.72 1012.40 1013.05 1013.62 1014.09 1014.44 1014.69 1014.85 1014.95 1015.06 1015.18 1015.35 1015.57 1015.83 1016.11 1016.37 1016.60 1016.77 1016.88 1016.94 1016.97 1016.99 1017.01 1017.04 1017.09 1017.14 1017.18 1017.19 1017.16 1017.08 1016.96 1016.81 1016.65
1002.82 1003.89 1004.98 1006.02 1006.96 1007.81 1008.56 1009.27 1009.96 1010.66 1011.37 1012.07 1012.74 1013.34 1013.84 1014.23 1014.51 1014.70 1014.84 1014.97 1015.11 1015.29 1015.52 1015.80 1016.09 1016.39 1016.65 1016.87 1017.03 1017.14 1017.22 1017.27 1017.32 1017.38 1017.43 1017.49 1017.53 1017.54 1017.50 1017.42 1017.30 1017.14 1016.98
1002.33 1003.39 1004.47 1005.52 1006.48 1007.34 1008.13 1008.86 1009.57 1010.28 1011.00 1011.71 1012.39 1013.01 1013.53 1013.95 1014.26 1014.49 1014.66 1014.80 1014.96 1015.16 1015.40 1015.69 1016.00 1016.32 1016.61 1016.87 1017.08 1017.24 1017.36 1017.46 1017.55 1017.63 1017.71 1017.79 1017.84 1017.86 1017.83 1017.76 1017.64 1017.49 1017.33
1001.95 1002.96 1004.02 1005.04 1006.00 1006.88 1007.68 1008.43 1009.16 1009.88 1010.61 1011.33 1012.01 1012.64 1013.19 1013.63 1013.97 1014.23 1014.43 1014.60 1014.78 1015.00 1015.25 1015.55 1015.87 1016.20 1016.51 1016.79 1017.03 1017.23 1017.39 1017.53 1017.66 1017.78 1017.89 1017.99 1018.07 1018.11 1018.11 1018.06 1017.97 1017.84 1017.70
1001.68 1002.61 1003.60 1004.58 1005.51 1006.38 1007.19 1007.95 1008.70 1009.44 1010.18 1010.91 1011.61 1012.25 1012.82 1013.29 1013.66 1013.96 1014.19 1014.40 1014.61 1014.84 1015.10 1015.40 1015.72 1016.04 1016.35 1016.64 1016.89 1017.11 1017.31 1017.48 1017.64 1017.79 1017.94 1018.08 1018.20 1018.28 1018.31 1018.30 1018.25 1018.16 1018.05
1001.50 1002.31 1003.20 1004.09 1004.97 1005.81 1006.62 1007.40 1008.17 1008.93 1009.70 1010.45 1011.17 1011.84 1012.43 1012.94 1013.35 1013.68 1013.96 1014.20 1014.44 1014.69 1014.96 1015.25 1015.55 1015.86 1016.16 1016.44 1016.68 1016.91 1017.11 1017.30 1017.49 1017.68 1017.87 1018.05 1018.21 1018.34 1018.43 1018.47 1018.47 1018.43 1018.35
1001.38 1002.04 1002.79 1003.58 1004.38 1005.17 1005.96 1006.75 1007.54 1008.34 1009.14 1009.93 1010.68 1011.38 1012.01 1012.56 1013.02 1013.40 1013.72 1014.00 1014.27 1014.53 1014.81 1015.09 1015.38 1015.66 1015.93 1016.18 1016.40 1016.61 1016.81 1017.02 1017.23 1017.45 1017.67 1017.90 1018.11 1018.30 1018.45 1018.55 1018.61 1018.62 1018.59
1001.30 1001.79 1002.38 1003.04 1003.74 1004.47 1005.24 1006.02 1006.83 1007.66 1008.50 1009.33 1010.13 1010.87 1011.55 1012.14 1012.64 1013.07 1013.44 1013.76 1014.06 1014.34 1014.62 1014.89 1015.16 1015.41 1015.64 1015.86 1016.05 1016.24 1016.44 1016.64 1016.87 1017.12 1017.39 1017.67 1017.93 1018.18 1018.39 1018.55 1018.66 1018.72 1018.74
1001.25 1001.56 1001.99 1002.51 1003.10 1003.76 1004.48 1005.25 1006.08 1006.93 1007.81 1008.68 1009.51 1010.30 1011.02 1011.65 1012.20 1012.67 1013.08 1013.44 1013.77 1014.07 1014.35 1014.61 1014.86 1015.08 1015.28 1015.47 1015.64 1015.81 1016.00 1016.21 1016.46 1016.74 1017.05 1017.38 1017.70 1018.00 1018.26 1018.48 1018.64 1018.74 1018.80
1001.25 1001.41 1001.68 1002.06 1002.54 1003.11 1003.78 1004.53 1005.35 1006.21 1007.11 1008.00 1008.87 1009.68 1010.43 1011.09 1011.67 1012.18 1012.62 1013.01 1013.36 1013.68 1013.97 1014.23 1014.46 1014.67 1014.85 1015.01 1015.17 1015.33 1015.52 1015.75 1016.03 1016.34 1016.70 1017.07 1017.44 1017.79 1018.10 1018.35 1018.55 1018.69 1018.77
1001.37 1001.39 1001.53 1001.78 1002.15 1002.64 1003.24 1003.94 1004.73 1005.58 1006.47 1007.36 1008.23 1009.05 1009.81 1010.48 1011.08 1011.60 1012.06 1012.47 1012.84 1013.17 1013.47 1013.73 1013.97 1014.17 1014.35 1014.51 1014.67 1014.84 1015.05 1015.30 1015.60 1015.95 1016.35 1016.76 1017.17 1017.56 1017.91 1018.19 1018.41 1018.57 1018.66
1001.66 1001.59 1001.63 1001.77 1002.04 1002.44 1002.96 1003.59 1004.32 1005.13 1005.98 1006.84 1007.68 1008.48 1009.21 1009.87 1010.46 1010.98 1011.44 1011.86 1012.23 1012.58 1012.89 1013.17 1013.41 1013.63 1013.82 1014.00 1014.17 1014.37 1014.60 1014.88 1015.21 1015.60 1016.02 1016.47 1016.91 1017.32 1017.69 1017.99 1018.22 1018.38 1018.49
1002.20 1002.08 1002.04 1002.11 1002.28 1002.59 1003.01 1003.56 1004.21 1004.93 1005.71 1006.50 1007.28 1008.02 1008.71 1009.33 1009.88 1010.38 1010.82 1011.23 1011.61 1011.96 1012.29 1012.58 1012.85 1013.10 1013.31 1013.52 1013.73 1013.95 1014.21 1014.52 1014.88 1015.29 1015.73 1016.20 1016.65 1017.07 1017.45 1017.75 1017.98 1018.14 1018.24
1003.01 1002.88 1002.80 1002.80 1002.90 1003.11 1003.43 1003.87 1004.42 1005.04 1005.71 1006.41 1007.10 1007.75 1008.36 1008.91 1009.41 1009.86 1010.28 1010.67 1011.04 1011.40 1011.74 1012.06 1012.36 1012.63 1012.89 1013.13 1013.37 1013.62 1013.91 1014.24 1014.61 1015.02 1015.47 1015.93 1016.38 1016.80 1017.16 1017.45 1017.67 1017.82 1017.92
1004.09 1003.97 1003.87 1003.83 1003.86 1003.97 1004.20 1004.52 1004.95 1005.45 1006.00 1006.58 1007.15 1007.69 1008.20 1008.67 1009.10 1009.49 1009.87 1010.24 1010.59 1010.95 1011.31 1011.65 1011.98 1012.28 1012.57 1012.84 1013.11 1013.39 1013.68 1014.01 1014.38 1014.78 1015.21 1015.65 1016.07 1016.47 1016.81 1017.08 1017.29 1017.44 1017.53
1005.38 1005.28 1005.18 1005.10 1005.07 1005.11 1005.23 1005.44 1005.75 1006.12 1006.54 1006.98 1007.42 1007.85 1008.25 1008.62 1008.97 1009.30 1009.62 1009.95 1010.29 1010.65 1011.01 1011.37 1011.72 1012.05 1012.36 1012.66 1012.94 1013.22 1013.51 1013.83 1014.17 1014.54 1014.92 1015.32 1015.71 1016.06 1016.38 1016.64 1016.84 1016.98 1017.08
1006.74 1006.67 1006.58 1006.48 1006.40 1006.37 1006.41 1006.52 1006.71 1006.95 1007.24 1007.56 1007.87 1008.18 1008.47 1008.74 1008.99 1009.25 1009.52 1009.81 1010.12 1010.46 1010.82 1011.18 1011.55 1011.89 1012.22 1012.52 1012.80 1013.07 1013.34 1013.62 1013.91 1014.23 1014.56 1014.91 1015.25 1015.57 1015.86 1016.10 1016.30 1016.46 1016.57
1008.06 1008.01 1007.92 1007.81 1007.70 1007.62 1007.59 1007.62 1007.71 1007.85 1008.02 1008.21 1008.41 1008.60 1008.78 1008.95 1009.12 1009.30 1009.51 1009.75 1010.03 1010.34 1010.68 1011.04 1011.40 1011.74 1012.06 1012.35 1012.61 1012.85 1013.08 1013.31 1013.55 1013.81 1014.08 1014.37 1014.66 1014.95 1015.22 1015.47 1015.69 1015.87 1016.03
Thickness
5792 5791 5789 5786 5782 5778 5774 5770 5767 5764 5761 5758 5755 5752 5749 5748 5746 5744 5741 5738 5737 5736 5736 5737 5735 5734 5734 5733 5733 5732 5730 5730 5730 5728 5727 5729 5730 5730 5730 5731 5732 5732 5730
5786 5784 5783 5782 5778 5774 5770 5767 5764 5762 5759 5757 5754 5751 5749 5746 5744 5741 5738 5736 5735 5734 5735 5733 5734 5733 5731 5729 5728 5728 5728 5729 5728 5726 5724 5722 5724 5725 5730 5729 5729 5729 5729
5782 5780 5778 5777 5775 5771 5768 5766 5763 5759 5757 5755 5752 5748 5745 5742 5740 5737 5736 5734 5733 5732 5731 5731 5731 5730 5730 5728 5725 5725 5724 5724 5725 5726 5723 5719 5718 5722 5724 5725 5726 5726 5726
5780 5778 5775 5772 5771 5769 5767 5764 5760 5756 5754 5752 5749 5746 5742 5738 5737 5735 5734 5732 5731 5730 5729 5728 5727 5727 5727 5724 5724 5724 5723 5722 5721 5723 5722 5721 5721 5717 5717 5721 5723 5723 5722
5777 5774 5772 5769 5768 5767 5764 5761 5757 5753 5751 5749 5746 5743 5741 5738 5736 5734 5730 5729 5729 5727 5727 5725 5724 5723 5723 5721 5720 5720 5720 5720 5720 5720 5720 5719 5717 5718 5715 5713 5716 5718 5720
5772 5770 5768 5766 5763 5763 5761 5757 5753 5749 5747 5745 5743 5739 5736 5734 5731 5729 5727 5727 5727 5725 5724 5723 5721 5720 5720 5718 5717 5717 5717 5717 5717 5717 5718 5717 5716 5715 5714 5711 5711 5712 5715
5765 5764 5761 5759 5757 5757 5755 5753 5749 5745 5743 5741 5739 5736 5733 5730 5728 5726 5725 5725 5724 5723 5720 5720 5717 5716 5715 5714 5714 5714 5714 5714 5712 5713 5714 5716 5716 5716 5714 5712 5711 5710 5712
5758 5758 5757 5754 5752 5751 5749 5747 5745 5742 5740 5737 5734 5732 5730 5729 5727 5723 5723 5722 5721 5720 5718 5715 5713 5712 5711 5710 5710 5712 5711 5711 5710 5711 5710 5711 5712 5712 5712 5710 5709 5706 5708
5749 5750 5750 5749 5747 5745 5743 5742 5740 5738 5735 5733 5730 5727 5726 5724 5722 5720 5719 5719 5717 5716 5714 5712 5710 5708 5707 5706 5706 5707 5706 5706 5707 5707 5707 5707 5708 5708 5708 5708 5707 5703 5700
5740 5742 5742 5741 5740 5740 5738 5737 5735 5733 5730 5728 5725 5724 5721 5719 5717 5716 5714 5712 5711 5710 5708 5707 5705 5704 5703 5703 5702 5703 5702 5701 5701 5702 5702 5702 5703 5704 5704 5704 5704 5702 5699
5733 5733 5734 5734 5734 5733 5733 5730 5729 5727 5724 5722 5720 5717 5716 5713 5712 5710 5709 5708 5706 5704 5703 5702 5701 5700 5699 5698 5697 5698 5697 5697 5696 5697 5697 5696 5697 5698 5699 5699 5698 5697 5695
5725 5727 5728 5728 5726 5726 5725 5723 5722 5721 5720 5717 5715 5713 5711 5708 5707 5705 5704 5703 5701 5700 5699 5698 5697 5695 5695 5694 5693 5692 5693 5692 5691 5691 5691 5691 5692 5691 5692 5692 5692 5692 5691
5717 5719 5720 5720 5718 5717 5717 5717 5715 5715 5715 5712 5709 5707 5705 5702 5701 5700 5699 5697 5696 5695 5694 5693 5692 5691 5690 5688 5688 5687 5687 5687 5687 5686 5685 5686 5685 5685 5686 5685 5686 5687 5687
5708 5710 5710 5710 5710 5709 5709 5708 5708 5709 5707 5705 5703 5700 5698 5697 5695 5694 5693 5692 5690 5689 5689 5688 5687 5685 5685 5683 5682 5682 5681 5681 5681 5681 5680 5680 5680 5679 5679 5679 5679 5680 5679
5699 5700 5701 5701 5701 5701 5701 5702 5701 5700 5699 5697 5695 5693 5692 5691 5690 5688 5687 5686 5685 5685 5684 5682 5682 5681 5680 5680 5678 5676 5676 5675 5675 5675 5675 5674 5674 5672 5672 5674 5674 5673 5673
5690 5692 5692 5693 5694 5694 5694 5693 5692 5691 5691 5689 5688 5688 5686 5685 5683 5683 5681 5680 5679 5679 5678 5678 5677 5676 5676 5673 5669 5668 5670 5670 5669 5668 5668 5669 5668 5665 5663 5663 5664 5664 5665
5682 5683 5684 5686 5686 5686 5686 5685 5684 5684 5682 5681 5681 5680 5680 5678 5677 5677 5676 5675 5674 5674 5673 5673 5672 5670 5669 5665 5663 5661 5663 5664 5664 5663 5662 5663 5664 5661 5660 5658 5656 5656 5656
5673 5675 5676 5678 5678 5678 5678 5678 5677 5675 5674 5673 5673 5674 5673 5672 5671 5670 5669 5669 5668 5668 5667 5667 5667 5665 5663 5659 5657 5655 5657 5658 5658 5657 5657 5656 5655 5655 5653 5653 5653 5653 5653
5666 5667 5669 5671 5671 5670 5670 5669 5668 5668 5667 5667 5666 5667 5667 5666 5665 5664 5663 5662 5662 5661 5661 5662 5661 5660 5658 5653 5651 5647 5652 5652 5652 5652 5651 5650 5648 5645 5643 5644 5645 5645 5646
5659 5660 5662 5662 5662 5663 5663 5662 5661 5661 5660 5660 5660 5660 5661 5660 5658 5657 5656 5656 5656 5655 5656 5656 5656 5655 5654 5648 5645 5642 5647 5647 5647 5646 5646 5642 5641 5637 5635 5636 5637 5637 5639
5652 5654 5654 5654 5654 5655 5655 5655 5655 5654 5654 5653 5652 5653 5653 5652 5652 5651 5650 5649 5649 5649 5649 5650 5650 5650 5648 5644 5639 5637 5640 5641 5641 5641 5640 5638 5633 5630 5628 5627 5629 5630 5630
5646 5646 5646 5646 5646 5646 5647 5647 5647 5647 5646 5645 5644 5644 5645 5646 5646 5644 5643 5643 5642 5642 5642 5643 5644 5645 5643 5639 5635 5631 5631 5632 5633 5633 5634 5631 5625 5623 5621 5621 5621 5620 5620
5636 5637 5637 5637 5637 5638 5639 5639 5639 5639 5638 5637 5636 5637 5637 5638 5638 5637 5637 5637 5637 5637 5638 5639 5639 5639 5639 5635 5629 5626 5625 5624 5625 5627 5623 5620 5618 5616 5617 5616 5614 5613 5617
5627 5627 5628 5628 5629 5630 5631 5631 5631 5631 5630 5629 5629 5629 5629 5630 5631 5631 5632 5632 5632 5631 5632 5632 5632 5632 5631 5629 5626 5623 5621 5618 5618 5619 5616 5613 5612 5612 5612 5611 5611 5612 5614
5618 5618 5619 5619 5621 5622 5623 5624 5624 5623 5623 5623 5622 5622 5623 5624 5623 5624 5623 5624 5624 5623 5621 5623 5624 5624 5623 5619 5614 5613 5615 5614 5613 5610 5611 5612 5612 5611 5611 5611 5611 5610 5610
5608 5609 5610 5611 5613 5614 5615 5615 5615 5615 5615 5615 5616 5617 5617 5617 5617 5617 5617 5614 5613 5611 5610 5609 5610 5613 5610 5607 5605 5604 5603 5602 5601 5602 5607 5608 5608 5608 5608 5607 5606 5606 5606